[[{"header":{"parameterUnit":"m.s-1","parameterCategory":1,"la1":30.2991,"la2":30.254,"lo1":-89.0895,"lo2":-89.0444,"dy":0.0017,"dx":0.0017,"nx":28,"ny":28,"refTime":"2025-12-18T09:00:00:Z","depth":0,"parameterNumber":2,"parameterNumberName":"U-component_of_WINDS"},"data":[0,0,0,0,0,0,0,0,0,0,0,0,0,0,0,0,0,0,0,0,0,0,0,0,0,0,0,0,0,0,0,0,0,0,0,0,0,0,0,0,0,0,0,0,0,0,0,0,0,0,0,0,0,0,0,0,0,0,3.9957,3.9958,0,4.0009,4.0009,4.001,3.9945,3.9942,3.994,3.9938,3.9994,3.9998,4.0002,0,0,0,0,0,0,0,0,0,0,0,0,0,3.9809,3.9812,3.9957,3.9958,3.9958,4.0008,4.0009,4.001,3.9945,3.9942,3.9939,3.9937,3.9993,3.9998,4.0002,0,0,0,0,0,0,0,0,0,0,0,0,0,3.9869,3.9813,3.9957,3.9932,3.993,4.0008,4.0009,4.001,3.9946,3.9942,3.9939,3.9935,3.9992,3.9997,4.0003,4.0109,0,0,4.002,4.0022,0,0,0,0,0,0,0,0,3.9865,3.9874,3.9935,3.9934,3.9932,3.9966,3.9978,4.0043,3.9947,3.994,3.9938,3.9934,3.9988,3.9994,4.0012,4.0111,4.0114,4.002,4.0024,4.0026,4.0028,0,0,0,0,0,0,0,3.9861,3.9871,3.9978,3.9936,3.9934,3.992,3.9925,3.999,3.9984,3.994,3.9936,3.9943,3.9987,4.0006,4.0012,4.0115,4.002,4.0025,4.0029,4.0031,4.0308,4.0312,0,0,0,0,0,0,3.9859,3.9868,3.9976,3.9979,3.9889,3.9926,3.9931,3.9959,3.9983,3.9983,3.9946,3.9939,3.9999,4.0006,4.0014,4.0143,4.0026,4.0031,4.0034,4.0304,4.0309,4.0314,0,0,0,0,0,0,3.9856,3.9869,3.9974,3.9923,3.9935,3.9932,3.9965,3.9962,3.9981,3.9987,3.9986,3.9966,3.9996,4.0006,4.0086,4.0144,4.0034,4.0039,4.03,4.0306,4.0312,4.0399,0,0,0,0,0,0,3.9852,3.9869,3.9907,3.9924,3.9938,4.0044,3.9968,3.9966,3.9991,3.9983,4.0006,4.0006,3.9994,4.0078,4.0092,4.0149,4.0043,4.0295,4.0302,4.031,4.0391,4.0407,4.0421,0,0,0,0,0,3.9847,3.993,3.991,3.9923,3.9986,4.0047,4.0055,4.0038,3.9995,4.0036,4.004,4.0005,4.0135,4.0087,4.0102,4.0162,4.0291,4.03,4.0309,4.0384,4.0404,4.0421,0,0,0,0,0,0,3.9921,3.9931,3.9909,3.9999,4.0023,4.0036,4.0086,4.0059,4.0096,4.0087,4.0066,4.0072,4.0158,4.0168,4.0114,4.0268,4.0206,4.0219,4.0258,4.0277,4.0292,4.0289,4.0048,0,0,0,0,0,3.9947,3.9995,4.0002,4.0081,4.0094,4.0088,4.0114,4.0099,4.0123,4.0133,4.0142,4.0168,4.0215,4.0246,4.0289,4.0392,4.0398,4.0441,4.0456,4.0468,4.048,4.0538,4.0558,4.0343,4.0343,4.0343,0,0,4.0003,4.0015,4.0046,4.0096,4.0112,4.0164,4.0097,4.0153,4.0192,4.0142,4.0218,4.0227,4.0255,4.0347,4.0389,4.0358,4.054,4.048,4.0489,4.0494,4.055,4.057,4.0588,4.035,4.0348,4.0347,0,0,4.0131,4.0143,4.0212,4.023,4.0256,4.0252,4.0269,4.0287,4.029,4.0367,4.0331,4.0378,4.0458,4.048,4.0502,4.0643,4.0614,4.0657,4.0737,4.0794,4.0811,4.0826,4.0879,4.0898,4.0668,4.0669,4.0669,0,4.0197,4.0272,4.0251,4.0311,4.0336,4.0292,4.0364,4.0383,4.0422,4.0441,4.0406,4.0508,4.0523,4.0622,4.0657,4.0675,4.0696,4.0655,4.081,4.0825,4.0839,4.0889,4.0909,4.0674,4.0673,4.0673,4.0672,0,4.0354,4.0407,4.0459,4.0498,4.0529,4.0594,4.0586,4.0619,4.0603,4.0604,4.0684,4.0701,4.0749,4.0771,4.0755,4.0869,4.085,4.0813,4.0751,4.0865,4.0912,4.0931,4.0682,4.068,4.0678,4.0677,0,0,4.0529,4.0557,4.0577,4.0595,4.0622,4.0663,4.0729,4.0774,4.0805,4.0834,4.0891,4.0961,4.0928,4.0953,4.0939,4.0989,4.1104,4.0947,4.0947,4.0978,4.1235,4.1264,4.1287,4.1084,4.1088,4.1091,4.1233,0,4.0659,4.077,4.0755,4.0863,4.0914,4.0874,4.0931,4.0956,4.0959,4.1004,4.1008,4.1059,4.101,4.1025,4.1073,4.108,4.1156,4.1069,4.1139,4.1142,4.1135,4.1311,4.1341,4.1475,4.1251,4.1255,4.1257,0,4.0826,4.0861,4.0975,4.0996,4.1017,4.1068,4.1111,4.1154,4.1181,4.1181,4.121,4.1189,4.1257,4.1193,4.1289,4.123,4.1258,4.1267,4.1272,4.1279,4.1208,4.1325,4.1516,4.1538,4.1285,4.1283,4.1281,0,4.0946,4.1022,4.11,4.1117,4.1143,4.1181,4.1195,4.1218,4.1248,4.1286,4.1306,4.1351,4.1377,4.1414,4.1407,4.136,4.1506,4.1441,4.151,4.1511,4.1543,4.1542,4.1744,4.1558,4.1558,4.1557,4.1557,0,4.1094,4.1166,4.1155,4.1203,4.1284,4.1266,4.1347,4.1355,4.1378,4.1429,4.1398,4.1447,4.1433,4.1483,4.1478,4.156,4.1571,4.1575,4.1573,4.1579,4.1579,4.1598,4.159,4.1563,4.1562,4.1561,4.156,0,4.1242,4.1237,4.1321,4.1339,4.1346,4.1405,4.1422,4.1469,4.147,4.1536,4.1551,4.1554,4.1611,4.1607,4.1671,4.1668,4.1771,4.1757,4.1761,4.1759,4.183,4.1824,4.2054,4.2084,4.1876,4.1878,4.188,0,4.1338,4.1392,4.1417,4.1449,4.1465,4.1516,4.1547,4.1533,4.1567,4.1604,4.1648,4.1702,4.1745,4.1839,4.1848,4.1898,4.1887,4.1964,4.1894,4.19,4.1892,4.189,4.1897,4.1978,4.1981,4.1983,4.1984,0,4.151,4.1506,4.155,4.1595,4.1632,4.1667,4.1698,4.1727,4.1717,4.1756,4.1814,4.1848,4.1914,4.197,4.2019,4.2034,4.201,4.2006,4.2025,4.2033,4.2034,4.2037,4.1801,4.2001,4.1999,4.1998,4.1997,4.1996,4.1636,4.1684,4.171,4.1762,4.1784,4.1815,4.1862,4.1869,4.1917,4.1969,4.1959,4.2025,4.2055,4.2117,4.2138,4.2192,4.2164,4.2191,4.2199,4.2206,4.2216,4.2024,4.22,4.22,4.2199,4.2199,4.2199,0,4.1809,4.1824,4.1872,4.1918,4.1959,4.193,4.1965,4.2002,4.2061,4.209,4.2133,4.2202,4.2256,4.2271,4.2324,4.2364,4.2355,4.2379,4.2377,4.2382,4.2236,4.2215,4.2386,4.2386,4.2386,4.2386,4.2386,4.2386,4.1904,4.1984,4.1984,4.2076,4.2091,4.2155,4.2178,4.2208,4.2231,4.2309,4.2354,4.2363,4.2388,4.2443,4.2493,4.2496,4.2518,4.2548,4.2547,4.2411,4.2392,4.2374,4.2354,4.2553,4.2553,4.2689,4.2691,4.2692]},{"header":{"parameterUnit":"m.s-1","parameterCategory":1,"la1":30.2991,"la2":30.254,"lo1":-89.0895,"lo2":-89.0444,"dy":0.0017,"dx":0.0017,"nx":28,"ny":28,"refTime":"2025-12-18T09:00:00:Z","depth":0,"parameterNumber":3,"parameterNumberName":"V-component_of_WINDS"},"data":[0,0,0,0,0,0,0,0,0,0,0,0,0,0,0,0,0,0,0,0,0,0,0,0,0,0,0,0,0,0,0,0,0,0,0,0,0,0,0,0,0,0,0,0,0,0,0,0,0,0,0,0,0,0,0,0,0,0,-0.4716,-0.4712,0,-0.437,-0.4366,-0.4362,-0.4311,-0.4314,-0.4317,-0.432,-0.3956,-0.3944,-0.3932,0,0,0,0,0,0,0,0,0,0,0,0,0,-0.5325,-0.5314,-0.4716,-0.4712,-0.4708,-0.437,-0.4366,-0.4361,-0.431,-0.4314,-0.4318,-0.4321,-0.396,-0.3946,-0.393,0,0,0,0,0,0,0,0,0,0,0,0,0,-0.5028,-0.5311,-0.4717,-0.4642,-0.4632,-0.4371,-0.4366,-0.436,-0.4309,-0.4314,-0.4319,-0.4323,-0.3965,-0.3947,-0.3928,-0.3716,0,0,-0.387,-0.3862,0,0,0,0,0,0,0,0,-0.5045,-0.5005,-0.4657,-0.4647,-0.4635,-0.4389,-0.4447,-0.4143,-0.4308,-0.4431,-0.432,-0.4326,-0.4096,-0.4066,-0.3991,-0.3699,-0.3683,-0.3869,-0.3857,-0.3849,-0.3844,0,0,0,0,0,0,0,-0.5065,-0.502,-0.4579,-0.4652,-0.4638,-0.4623,-0.4586,-0.4389,-0.4241,-0.4421,-0.4417,-0.4377,-0.409,-0.4009,-0.3982,-0.3678,-0.3869,-0.3852,-0.3841,-0.3833,-0.3192,-0.3187,0,0,0,0,0,0,-0.5101,-0.5038,-0.459,-0.4569,-0.4856,-0.4608,-0.4566,-0.4463,-0.4243,-0.4214,-0.4373,-0.4376,-0.4039,-0.4004,-0.3969,-0.3704,-0.3849,-0.3831,-0.382,-0.3198,-0.3191,-0.3185,0,0,0,0,0,0,-0.5114,-0.5061,-0.4604,-0.4802,-0.4742,-0.4592,-0.4476,-0.4453,-0.4372,-0.4207,-0.4179,-0.4318,-0.4041,-0.3995,-0.3779,-0.3691,-0.3823,-0.3806,-0.3205,-0.3196,-0.3188,-0.3174,0,0,0,0,0,0,-0.5132,-0.5067,-0.4986,-0.48,-0.4732,-0.4423,-0.4471,-0.4443,-0.434,-0.4341,-0.4147,-0.412,-0.4042,-0.3808,-0.3761,-0.3667,-0.3791,-0.3212,-0.3201,-0.3191,-0.3182,-0.3166,-0.3153,0,0,0,0,0,-0.5154,-0.4995,-0.4983,-0.4929,-0.4629,-0.4418,-0.4379,-0.4294,-0.4334,-0.425,-0.4144,-0.4126,-0.3709,-0.3786,-0.3732,-0.3632,-0.3217,-0.3204,-0.3192,-0.3188,-0.3169,-0.3153,0,0,0,0,0,0,-0.5171,-0.4969,-0.4953,-0.473,-0.4592,-0.441,-0.4302,-0.4277,-0.4123,-0.4129,-0.4028,-0.3985,-0.3773,-0.3681,-0.3771,-0.3414,-0.3466,-0.3442,-0.3482,-0.3462,-0.3448,-0.3473,-0.3775,0,0,0,0,0,-0.5149,-0.4998,-0.4828,-0.4647,-0.4579,-0.4453,-0.4358,-0.4305,-0.4157,-0.4097,-0.3975,-0.383,-0.3665,-0.3559,-0.3399,-0.3169,-0.3124,-0.3073,-0.3059,-0.3048,-0.3027,-0.2896,-0.2871,-0.3143,-0.3144,-0.3144,0,0,-0.5102,-0.4973,-0.4882,-0.4647,-0.4534,-0.4376,-0.4404,-0.4236,-0.4117,-0.4071,-0.386,-0.3765,-0.3596,-0.3372,-0.3267,-0.3288,-0.2942,-0.3032,-0.3024,-0.3009,-0.288,-0.2855,-0.2832,-0.3135,-0.3136,-0.3138,0,0,-0.4934,-0.4823,-0.4659,-0.4546,-0.4375,-0.4292,-0.4253,-0.4075,-0.4011,-0.3799,-0.376,-0.3616,-0.3336,-0.3216,-0.3119,-0.2907,-0.2883,-0.2857,-0.2781,-0.2654,-0.2633,-0.2613,-0.2535,-0.2508,-0.2838,-0.2838,-0.2838,0,-0.4895,-0.4659,-0.4577,-0.4411,-0.4307,-0.4262,-0.4093,-0.3986,-0.3771,-0.3699,-0.3728,-0.3375,-0.3257,-0.3004,-0.2952,-0.2876,-0.2825,-0.2877,-0.2643,-0.2623,-0.2603,-0.2527,-0.2498,-0.2836,-0.2836,-0.2836,-0.2836,0,-0.4619,-0.4456,-0.4343,-0.414,-0.4024,-0.3857,-0.3747,-0.3639,-0.3597,-0.351,-0.3293,-0.3151,-0.2961,-0.2897,-0.2853,-0.2636,-0.2655,-0.2664,-0.2714,-0.2576,-0.2503,-0.2473,-0.2832,-0.2833,-0.2834,-0.2834,0,0,-0.445,-0.4205,-0.4165,-0.4071,-0.388,-0.375,-0.3581,-0.3398,-0.3306,-0.3159,-0.3012,-0.2777,-0.2785,-0.2674,-0.2616,-0.2506,-0.2344,-0.2528,-0.2523,-0.2496,-0.2093,-0.2085,-0.2053,-0.2329,-0.2323,-0.2318,-0.2106,0,-0.4259,-0.3958,-0.3879,-0.3622,-0.3469,-0.3424,-0.3275,-0.3141,-0.3055,-0.291,-0.2815,-0.2649,-0.2673,-0.2605,-0.2495,-0.2388,-0.2261,-0.2402,-0.2187,-0.218,-0.2228,-0.2015,-0.2006,-0.1812,-0.2077,-0.2072,-0.2069,0,-0.3994,-0.3845,-0.3574,-0.3402,-0.3335,-0.3203,-0.3028,-0.2892,-0.2737,-0.2682,-0.256,-0.2512,-0.233,-0.2393,-0.2139,-0.2237,-0.2144,-0.2078,-0.2069,-0.2043,-0.2114,-0.198,-0.1749,-0.1719,-0.2023,-0.2027,-0.203,0,-0.3896,-0.3627,-0.3429,-0.3351,-0.3146,-0.3054,-0.2964,-0.2815,-0.2709,-0.2556,-0.2486,-0.2312,-0.2216,-0.2082,-0.1987,-0.2042,-0.174,-0.1795,-0.1687,-0.1689,-0.1623,-0.1628,-0.137,-0.1569,-0.1569,-0.157,-0.157,0,-0.3688,-0.3523,-0.3382,-0.326,-0.3073,-0.2984,-0.28,-0.2708,-0.2575,-0.2432,-0.2382,-0.2248,-0.2134,-0.1983,-0.1909,-0.1708,-0.1666,-0.1614,-0.1595,-0.1616,-0.1623,-0.1552,-0.1562,-0.1562,-0.1564,-0.1565,-0.1566,0,-0.3545,-0.3445,-0.3226,-0.3051,-0.3003,-0.2873,-0.2721,-0.2599,-0.2514,-0.2333,-0.2285,-0.2149,-0.197,-0.1864,-0.1636,-0.1586,-0.1363,-0.1351,-0.1416,-0.1407,-0.1303,-0.1313,-0.0989,-0.094,-0.1175,-0.1173,-0.1171,0,-0.3418,-0.329,-0.3103,-0.3005,-0.2914,-0.2757,-0.265,-0.2557,-0.2446,-0.2261,-0.216,-0.1979,-0.1828,-0.1543,-0.1422,-0.1247,-0.1229,-0.1127,-0.1202,-0.1227,-0.1223,-0.1231,-0.1216,-0.1114,-0.1112,-0.111,-0.1109,0,-0.3202,-0.3159,-0.3008,-0.2839,-0.2714,-0.2575,-0.2438,-0.236,-0.2242,-0.2121,-0.1938,-0.1822,-0.1591,-0.141,-0.1225,-0.1128,-0.1096,-0.1087,-0.1052,-0.107,-0.1112,-0.1085,-0.1378,-0.1094,-0.1095,-0.1096,-0.1097,-0.1098,-0.3061,-0.2945,-0.2795,-0.2627,-0.2515,-0.2387,-0.2264,-0.2164,-0.2011,-0.1818,-0.1771,-0.1579,-0.1425,-0.1174,-0.1074,-0.092,-0.0936,-0.0886,-0.0872,-0.0861,-0.0856,-0.114,-0.0886,-0.0886,-0.0886,-0.0887,-0.0887,0,-0.284,-0.2742,-0.259,-0.24,-0.2267,-0.2254,-0.2101,-0.199,-0.1823,-0.1684,-0.1538,-0.1327,-0.1151,-0.1016,-0.0835,-0.0738,-0.0718,-0.0693,-0.0697,-0.0675,-0.0854,-0.0901,-0.0711,-0.0711,-0.0711,-0.0711,-0.0711,-0.0711,-0.271,-0.2512,-0.2451,-0.2196,-0.2097,-0.1911,-0.1824,-0.1705,-0.1593,-0.1361,-0.1216,-0.1131,-0.0992,-0.0801,-0.0638,-0.0603,-0.0537,-0.0513,-0.0475,-0.0644,-0.0662,-0.068,-0.0724,-0.05,-0.05,-0.0308,-0.0306,-0.0305]}]]